Location: ČR
(50.0000°N, 15.0000°E)
Time: 14:53:14
(UTC+00:00)

Envisat - Visible Passes

Search period start: 25 September 2021 00:00
Search period end: 05 October 2021 00:00
Orbit: 764 x 766 km, 98.2° (Epoch: 25 September)

Date Brightness Start Highest point End Pass type
(mag) Time Alt. Az. Time Alt. Az. Time Alt. Az.
25 Sep 3.9 03:57:36 10° NNE 04:02:36 53° E 04:07:33 10° S visible
26 Sep 5.3 03:21:13 10° NE 03:25:30 27° E 03:29:46 10° SSE visible
27 Sep 6.0 02:45:45 10° ENE 02:48:12 13° E 02:50:38 10° ESE visible
28 Sep 4.4 03:46:11 10° NNE 03:51:02 43° E 03:55:52 10° S visible
29 Sep 5.6 03:09:57 10° NE 03:13:53 22° E 03:17:46 10° SE visible
30 Sep 6.3 02:35:30 10° ENE 02:36:30 11° E 02:37:31 10° E visible
30 Sep 3.4 04:11:22 10° NNE 04:16:28 70° ESE 04:21:32 10° S visible
01 Oct 4.8 03:34:47 10° NNE 03:39:27 35° E 03:44:05 10° SSE visible
02 Oct 5.9 02:58:48 10° NE 03:02:14 18° E 03:05:38 10° SE visible
03 Oct 3.8 03:59:54 10° NNE 04:04:56 57° E 04:09:55 10° S visible
04 Oct 5.1 03:23:27 10° NE 03:27:51 29° E 03:32:13 10° SSE visible
